Regional Weather Roundup
Issued by NWS

Home | Current Version | Previous Version | Graphics & Text | Print | Product List | Glossary On
Versions: 1 2 3 4 5 6 7 8 9 10 11 12 13 14 15 16 17 18 19 20 21 22 23 24 25 26 27 28 29 30 31 32 33 34 35 36 37 38 39 40 41 42 43 44 45 46 47 48 49 50
000
ASUS45 KCYS 160310
RWRWY

WYOMING REGIONAL WEATHER ROUNDUP
NATIONAL WEATHER SERVICE CHEYENNE WY
900 PM MDT MON SEP 15 2014

NOTE:  "FAIR" INDICATES FEW OR NO CLOUDS BELOW 12,000 FEET
WITH NO SIGNIFICANT WEATHER AND/OR OBSTRUCTIONS TO VISIBILITY.

WYZ001-160400-
YELLOWSTONE NATIONAL PARK

CITY           SKY/WX    TMP DP  RH WIND       PRES   REMARKS
LK YELLOWSTONE   N/A     46  32  58 NW5       30.34R
W YELLOWSTONE  NOT AVBL

$$
WYZ002>013-054>058-071-098>099-160400-
NORTHERN WYOMING

CITY           SKY/WX    TMP DP  RH WIND       PRES   REMARKS
JACKSON        CLEAR     55  27  33 SE3       30.24R
CODY           CLEAR     55  46  71 SW3       30.15S
GREYBULL       CLEAR     62  42  47 W9        30.06R
WORLAND        CLEAR     57  46  66 CALM      30.07R
SHERIDAN       CLEAR     54  46  74 CALM      30.09R
BUFFALO        CLEAR     56  44  64 W5        30.16R
GILLETTE       CLEAR     58  44  60 S14       30.11R
HULETT         FAIR      59  41  51 MISG      30.12
NEWCASTLE      FAIR      61  39  44 E10G17    30.15

$$
WYZ014>020-022>026-101>103-160400-
CENTRAL WYOMING

CITY           SKY/WX    TMP DP  RH WIND       PRES   REMARKS
BIG PINEY      CLEAR     55  30  38 NW10      30.29R
PINEDALE       CLEAR     54  32  43 NW8       30.29R
DUBOIS         FAIR      55  28  35 NW7       30.27R
LANDER         CLEAR     66  35  31 W8        30.13R
RIVERTON       CLEAR     66  37  34 N9        30.14R
CASPER         PTCLDY    64  38  38 E7        30.12R
DOUGLAS        PTCLDY    57  44  62 S8        30.16R

$$
WYZ021-027>030-104>119-160400-
SOUTHERN WYOMING

CITY           SKY/WX    TMP DP  RH WIND       PRES   REMARKS
EVANSTON       CLEAR     66  31  27 W9        30.29R
KEMMERER       CLEAR    N/A N/A N/A NW8       30.31R
FORT BRIDGER   FAIR      64  30  28 W6        30.31R
ROCK SPRINGS   CLEAR     63  34  33 W12       30.26R
DIXON          FAIR      58  40  50 NE8       30.28R
RAWLINS        PTCLDY    64  33  31 W10       30.25R
SARATOGA       FAIR      59  36  41 CALM      30.29S
LARAMIE        MOCLDY    53  42  66 S9        30.30R
CHEYENNE       CLEAR     56  46  69 S12       30.28R
TORRINGTON     CLEAR     61  46  57 E13       30.14S
PINE BLUFFS    FAIR      52  46  82 S8        30.24R

$$



USA.gov is the U.S. government's official web portal to all federal, state and local government web resources and services.